Helicity
96 153 150 76 66 42 46 128 153 2 68 89 82 94 89 51 49 220 244 197 267 240 161 117 98 96 128 134 161 161 146 146 139 124 147 161 139 97 120 163 215 182 133 149
125 129 69 35 19 46 54 131 166 146 106 86 156 228 101 47 48 195 275 322 244 174 113 115 103 131 125 118 133 131 144 149 166 186 165 149 115 97 69 32 91 149 156 74
121 92 35 34 47 144 171 127 101 100 75 102 132 86 60 28 70 381 314 263 265 179 163 127 156 148 101 86 89 102 115 128 128 186 163 166 164 170 171 155 99 91 90 85
77 42 133 132 110 132 120 72 77 85 148 131 91 133 88 153 282 366 223 279 186 151 128 198 163 109 93 87 74 73 72 102 85 76 102 147 162 169 168 174 151 143 102 85
164 134 108 151 108 93 114 115 174 228 136 81 96 151 104 13 265 301 278 177 168 149 188 180 97 89 102 106 107 104 88 88 68 59 53 55 67 77 107 111 125 128 129 150
123 119 97 105 90 103 76 200 197 153 126 175 115 101 98 46 124 285 149 202 185 196 158 107 96 103 114 118 117 94 85 87 70 57 63 64 73 73 66 70 89 87 101 59
228 172 209 240 247 125 212 282 241 193 279 250 67 77 137 78 144 115 322 419 252 193 156 120 130 131 133 132 125 96 89 91 77 56 53 61 68 75 83 72 60 68 65 66
251 268 230 203 202 233 200 171 314 270 230 111 68 251 194 170 339 350 341 304 304 227 153 173 170 152 138 144 124 111 101 91 70 56 55 54 67 63 67 74 71 68 68 82
264 181 126 96 177 155 125 165 146 252 259 307 277 185 75 203 374 353 368 325 266 211 181 195 171 146 145 153 128 121 103 94 70 61 55 61 58 65 59 74 75 74 86 93
243 311 82 105 165 53 157 61 223 308 413 336 215 167 181 296 330 286 222 258 200 170 157 159 168 170 185 150 133 113 98 81 69 65 65 67 68 62 60 70 77 78 76 89
159 280 242 217 360 206 257 261 277 198 263 341 277 242 203 177 191 105 152 143 185 139 133 177 251 207 210 158 148 126 107 91 81 75 83 80 75 73 69 72 75 67 70 83
126 369 414 209 142 101 51 110 155 294 276 233 216 179 106 16 -18 17 69 80 183 117 98 172 204 233 224 197 167 135 102 89 77 76 88 86 76 82 81 74 75 68 66 74
160 418 554 427 151 90 94 110 110 118 146 193 233 209 83 138 105 92 52 139 352 148 80 98 244 297 284 231 184 159 127 98 87 89 107 120 109 116 115 102 90 94 105 114
198 304 358 467 364 175 184 121 113 162 230 185 157 97 68 80 189 245 199 270 232 232 149 142 262 340 321 203 205 157 124 102 104 129 151 138 135 127 116 104 103 102 89 91
181 350 255 222 232 185 159 189 164 163 115 120 89 118 74 84 53 61 52 29 322 325 202 183 256 402 298 189 191 148 115 87 116 134 137 145 132 128 122 115 109 96 89 69
127 201 188 245 214 181 121 144 75 76 10 87 175 172 82 69 80 140 145 224 346 314 226 266 285 418 241 183 177 142 125 124 159 155 163 151 136 121 124 113 99 81 45 52
153 164 161 161 99 159 211 105 107 91 81 105 123 91 51 49 51 59 241 157 297 326 288 291 383 399 289 234 226 152 136 145 153 156 151 135 121 115 113 95 55 34 42 45
170 188 147 128 108 165 90 51 54 95 107 87 93 57 69 98 81 167 104 165 231 342 331 283 499 542 344 283 195 92 142 181 176 182 156 129 101 87 55 44 41 31 26 34
68 68 37 39 122 212 199 112 112 89 113 89 161 131 119 148 69 139 213 147 341 427 445 638 654 490 330 215 139 146 161 183 181 159 129 92 66 59 41 40 41 39 34 19
56 68 125 131 109 105 58 51 58 82 100 34 37 58 55 70 132 172 283 385 550 662 719 656 477 379 328 209 134 160 161 210 179 115 58 48 60 51 46 31 34 34 28 23
52 80 88 90 100 86 48 47 55 127 140 152 165 163 187 205 288 346 418 440 532 574 572 508 420 362 267 172 196 220 208 171 124 116 103 68 49 29 29 29 33 25 24 16
102 95 89 86 107 89 118 111 90 131 147 167 111 144 203 199 223 278 314 368 426 464 448 397 368 290 195 177 210 214 171 115 124 85 72 60 56 40 30 28 27 31 15 30
85 114 114 80 92 69 39 28 71 66 56 68 102 157 136 165 197 238 242 303 343 369 330 294 268 211 144 120 116 134 126 122 95 79 62 52 52 44 48 63 64 64 57 59
29 39 71 66 61 69 83 105 107 103 90 115 79 122 154 181 182 229 263 292 305 277 247 220 189 147 126 113 100 117 92 70 49 46 36 26 46 68 63 39 72 84 93 61
34 48 65 82 74 64 67 94 103 98 118 99 116 190 144 165 189 236 250 251 245 218 199 179 153 146 125 122 138 96 50 33 49 58 47 36 43 63 70 97 46 34 42 43
13 49 55 59 54 80 84 109 173 122 111 110 183 180 125 148 204 205 205 208 195 189 199 185 191 219 197 179 160 104 82 78 65 51 38 37 35 38 28 38 41 47 39 57
Wind_Speed
36 45 48 39 37 43 49 60 54 37 23 28 37 39 49 55 45 32 32 28 31 35 33 35 39 41 45 50 54 56 58 60 60 58 57 58 58 53 52 54 56 57 57 59
44 50 38 39 41 38 41 56 55 53 52 58 56 59 64 58 52 28 29 29 32 31 27 33 39 43 47 51 54 56 58 60 62 61 59 58 55 51 52 48 54 55 58 57
43 45 35 43 40 47 47 51 53 59 54 43 53 67 67 55 38 25 29 29 27 32 35 35 37 45 49 51 52 54 57 59 61 64 61 60 56 53 55 57 57 57 55 57
45 38 47 41 50 45 55 46 54 56 57 67 55 80 56 35 28 30 26 24 24 27 30 33 40 44 45 48 49 51 52 56 59 60 60 60 59 56 58 59 64 62 60 61
50 43 45 54 44 40 54 54 47 47 55 67 59 67 61 49 42 34 25 19 19 23 30 34 36 38 40 44 47 51 52 54 57 59 60 59 59 57 58 61 62 62 64 65
58 45 48 48 42 49 49 43 47 51 57 74 60 59 68 56 46 29 22 15 18 26 29 30 32 33 38 42 46 49 51 53 56 58 58 59 60 60 60 62 61 61 62 64
64 61 53 47 47 41 35 40 57 62 59 72 54 57 57 40 19 16 13 16 20 23 27 29 30 31 37 40 45 47 50 53 55 56 57 58 60 59 59 60 60 62 61 61
72 79 56 44 50 46 47 44 56 68 66 70 54 56 54 37 22 10 7 14 20 22 25 27 29 31 34 38 43 47 49 51 54 55 56 57 57 57 57 58 59 59 60 61
64 80 47 46 43 42 46 59 51 71 71 72 61 49 33 27 25 22 20 17 17 22 24 25 26 28 31 37 40 45 47 49 51 53 54 56 56 56 57 57 57 57 59 60
64 79 54 43 39 50 57 38 55 55 71 76 70 67 69 37 33 27 24 20 19 23 23 22 23 24 29 32 36 40 43 46 49 51 53 53 55 55 56 55 57 57 57 57
59 61 48 38 53 50 51 59 48 50 60 71 80 66 46 35 31 29 27 24 22 24 23 21 23 23 27 29 32 37 40 43 47 49 51 52 52 52 53 54 54 55 54 55
52 51 61 58 43 50 45 52 53 65 67 63 76 82 32 29 30 32 33 26 24 24 23 21 20 22 26 29 31 35 37 41 43 44 47 50 49 50 51 52 52 52 51 52
44 59 66 60 49 49 55 59 55 57 65 77 82 82 48 43 30 30 35 26 22 19 19 19 18 21 26 29 31 32 36 39 40 42 45 47 48 49 50 51 52 52 51 51
33 49 64 73 64 50 56 56 60 66 76 80 76 81 62 46 42 45 46 36 20 24 21 21 21 24 27 28 30 30 32 36 39 42 44 45 46 47 47 49 50 50 49 48
39 61 56 59 61 62 60 65 76 77 76 70 79 75 70 65 45 45 44 43 27 28 27 26 24 24 26 26 27 28 29 31 34 38 41 44 44 45 46 47 48 48 47 47
46 65 66 79 74 75 77 77 81 73 68 74 85 83 65 60 60 50 52 35 33 33 29 25 25 24 24 24 23 24 28 31 34 37 39 40 41 42 43 45 45 45 44 44
67 69 76 99 89 91 99 87 76 71 70 71 85 75 75 72 68 68 32 47 35 28 23 22 22 20 22 22 21 21 24 27 31 34 35 36 38 39 42 43 43 42 41 41
73 70 69 90 80 103 84 76 71 82 81 81 80 77 76 76 69 46 38 29 30 27 22 17 16 17 20 19 18 15 21 27 30 32 33 35 36 37 38 39 39 38 38 39
66 71 76 72 67 71 69 59 56 66 71 72 70 71 63 63 59 48 45 18 17 17 16 13 13 15 15 14 13 16 20 24 27 29 31 32 33 35 36 37 37 36 35 36
57 65 68 65 64 73 69 63 61 65 77 64 59 62 64 64 69 51 35 20 15 13 11 12 11 11 9 10 15 14 18 22 24 24 25 28 31 33 35 35 35 35 35 37
42 52 71 78 79 76 80 78 76 88 76 54 53 59 61 52 43 29 25 23 17 12 9 7 9 9 6 7 15 15 18 19 19 22 24 26 29 30 32 34 34 34 35 36
46 45 54 61 73 84 53 60 65 58 52 52 51 48 38 30 28 24 22 18 14 11 10 7 5 3 4 7 9 12 14 14 17 18 20 23 26 29 31 32 34 33 33 37
74 57 57 45 43 38 41 40 47 48 45 41 39 32 26 27 22 19 17 15 12 9 9 6 3 1 4 4 5 7 8 12 14 16 19 21 24 27 30 29 29 34 38 39
67 63 69 68 65 64 60 47 43 42 39 37 34 26 22 17 16 18 17 14 10 7 4 2 1 2 1 2 3 6 6 9 10 13 15 18 22 26 26 29 33 36 39 40
58 53 47 59 63 68 46 46 43 35 39 42 34 27 26 21 20 16 18 13 7 4 2 2 3 1 2 3 5 5 7 9 8 11 14 17 20 23 25 29 32 37 40 42
60 65 67 66 56 49 56 51 70 32 31 27 23 27 26 24 20 17 20 11 6 2 3 2 2 1 2 3 4 2 2 4 5 10 12 15 18 18 23 25 32 35 37 40
Wind_Direction
282 276 271 272 269 278 287 295 295 303 305 294 295 298 302 302 300 297 314 313 324 327 338 344 345 348 347 345 342 342 341 340 339 337 335 331 327 330 331 328 327 326 324 320
275 270 273 276 277 273 278 284 287 292 294 295 298 300 300 298 295 292 306 311 318 324 335 342 341 344 345 343 341 341 340 340 339 335 334 333 333 331 333 334 333 329 325 325
263 288 272 271 271 281 282 285 288 290 295 301 301 297 298 294 288 298 306 317 322 322 325 336 341 342 342 343 343 343 343 343 341 337 337 336 335 334 333 330 330 329 329 325
266 264 287 282 272 279 282 286 289 288 292 290 299 296 303 311 282 284 292 304 315 323 331 338 337 340 343 346 349 350 350 349 348 348 345 341 337 334 332 328 320 321 322 321
269 271 270 272 272 278 283 294 293 293 291 295 292 294 296 291 282 277 281 296 317 327 331 334 339 344 347 350 351 352 353 354 352 351 350 347 344 341 336 331 326 323 320 319
271 277 277 278 271 278 286 289 292 292 293 286 290 291 298 297 282 265 271 289 319 328 332 338 342 346 349 352 352 352 352 353 351 349 349 346 343 341 339 337 335 331 325 322
269 265 275 280 273 273 269 282 288 286 282 287 296 290 288 313 318 274 256 293 316 326 330 332 335 344 346 350 351 351 351 349 350 350 348 345 341 340 340 340 338 337 335 332
263 265 254 265 262 265 263 262 279 284 286 292 299 289 296 304 319 342 291 294 316 321 326 327 333 341 346 350 349 350 349 350 351 349 347 346 346 344 342 341 339 338 337 337
269 265 272 254 255 252 268 258 276 285 288 291 291 295 314 308 303 302 298 301 308 318 320 322 330 338 342 345 349 349 349 351 351 349 346 347 348 348 346 346 345 343 340 338
270 279 260 249 258 256 267 273 273 277 283 284 286 288 293 276 284 290 292 293 305 315 317 320 325 337 343 347 351 351 351 350 349 348 346 348 350 350 349 351 347 346 344 342
256 274 268 247 259 259 263 263 274 278 277 288 290 296 309 293 282 282 286 291 299 306 310 314 322 331 339 345 349 350 349 349 348 347 348 348 351 352 353 353 352 349 349 346
242 270 264 255 263 266 267 262 265 272 280 283 286 284 308 309 294 290 288 287 293 302 308 312 318 327 333 338 344 346 347 346 348 350 349 349 352 353 356 355 355 354 351 349
242 263 264 262 261 263 263 270 271 269 280 279 280 284 297 299 299 299 296 288 281 292 306 311 320 325 330 335 337 342 343 345 347 350 351 352 351 353 356 357 355 353 352 348
275 262 260 262 265 274 273 274 278 279 275 277 276 285 286 292 295 302 319 325 283 283 296 307 314 322 327 330 333 337 340 343 343 348 352 352 352 353 358 356 356 355 353 351
280 266 267 269 274 278 279 280 281 279 280 274 282 285 287 290 294 290 297 292 280 281 291 301 308 318 325 326 331 334 339 345 350 352 350 349 353 356 356 356 357 356 353 349
283 272 277 274 274 278 280 279 277 278 275 281 282 282 291 293 296 292 291 282 279 280 287 296 301 314 322 323 328 334 337 343 351 351 352 355 356 358 359 359 358 357 356 354
278 277 275 272 275 280 274 268 273 275 275 280 281 287 291 293 295 297 280 289 275 274 284 292 299 310 322 324 329 333 342 352 353 355 359 360 360 0 359 360 1 0 358 359
274 275 277 277 277 269 273 275 274 277 282 282 283 287 288 294 300 307 299 275 263 270 280 288 301 315 323 324 331 344 353 354 354 359 2 3 5 6 8 8 7 10 6 1
270 272 274 278 275 278 278 281 285 287 283 285 291 293 294 300 303 304 311 275 271 274 285 299 311 319 322 321 328 338 349 357 2 3 5 10 12 16 21 19 13 2 355 359
266 267 265 269 279 278 280 286 292 295 285 293 293 294 295 296 287 296 311 315 305 304 292 299 318 330 327 320 322 346 352 2 4 11 21 22 25 24 23 20 13 6 3 0
275 270 266 270 276 281 282 286 290 282 285 305 304 303 302 298 300 307 315 316 313 308 303 319 336 331 317 328 315 336 351 357 9 11 10 23 28 27 28 27 11 4 358 355
285 286 279 279 276 279 302 296 284 299 295 301 305 310 310 313 313 314 315 314 312 309 316 338 357 334 331 336 338 342 354 14 14 16 19 24 24 26 29 22 13 348 346 353
276 280 286 289 297 309 315 314 307 307 307 313 315 319 316 316 313 310 311 310 308 320 338 356 355 247 309 330 347 348 23 10 27 15 27 21 17 27 20 347 336 344 356 357
288 289 282 285 287 292 294 294 301 303 306 311 314 319 323 320 314 308 307 303 310 334 356 344 263 251 297 12 5 33 55 59 43 37 34 30 22 15 356 353 352 352 349 355
291 295 300 294 291 289 302 304 300 299 300 300 305 306 304 307 303 301 294 297 308 321 33 283 238 210 111 56 40 70 93 86 45 30 31 33 30 9 347 345 3 10 9 9
283 285 286 290 297 303 300 299 290 299 302 310 310 309 308 302 297 295 289 291 284 277 284 244 258 269 334 3 348 15 22 37 26 39 23 21 9 20 7 2 358 7 15 13